Wind_Speed
80 80 80 79 78 77 76 75 75 75 75 74 73 72 70 68 67 66 66 66 67 67 68 69 69 70 71 72 75 79 82 82 81 79 81 82 79 77 76 76 76 75 75 75 74 73 71 70 68 66 66 66 66 65 64 63 62 62 64 65 66 64 62 60 60 60 59 59 59 58 57 57 56 56 57 59 61 61 60 60 59 57 54 53 53 53 54 54
80 81 82 82 82 81 80 79 78 77 77 77 76 75 74 72 70 68 67 66 66 66 67 68 69 69 70 70 71 74 77 80 80 80 83 82 78 77 78 77 75 74 75 75 74 73 71 69 67 66 66 66 65 64 63 62 61 62 64 65 64 63 61 60 60 60 59 59 58 57 56 56 56 56 56 59 61 61 61 61 59 56 54 54 55 56 55 55
78 80 82 83 84 84 84 83 82 81 80 79 79 78 77 75 74 72 70 68 67 66 67 68 69 69 69 69 70 71 73 76 78 82 85 80 77 78 78 77 76 75 74 74 73 72 70 68 66 66 65 65 64 62 61 60 60 62 64 64 63 62 61 60 59 59 59 58 58 57 56 56 56 56 56 58 61 61 62 61 59 57 56 56 57 58 57 56
75 78 81 83 84 85 86 86 85 84 83 82 81 80 79 78 77 75 73 71 69 68 68 68 68 68 69 69 70 70 70 71 75 83 84 79 78 80 78 77 76 75 74 73 72 71 69 67 66 66 65 64 62 61 60 59 60 62 63 63 62 61 60 59 59 58 58 58 57 57 56 56 56 56 56 59 61 62 63 62 59 58 58 59 60 60 60 58
71 75 78 81 83 84 85 86 87 87 86 85 85 83 82 81 79 78 76 75 73 72 71 69 68 68 68 69 70 70 69 68 71 79 81 79 80 81 79 78 76 75 74 73 71 70 68 67 65 64 63 62 61 60 60 60 61 62 62 61 60 59 59 59 59 58 58 58 57 57 57 56 56 56 57 59 61 63 63 62 61 60 60 60 61 62 61 59
70 72 74 78 81 83 84 85 86 86 87 87 87 86 85 83 82 80 78 78 77 76 74 72 70 69 68 69 69 70 69 67 70 74 77 79 81 81 79 78 77 75 73 72 71 69 67 66 64 63 63 61 60 60 60 60 61 61 60 59 59 59 59 59 58 58 58 58 58 57 57 57 56 56 57 60 62 63 64 63 62 61 60 60 61 62 61 59
71 71 73 74 77 80 82 84 84 84 85 85 86 86 86 85 85 83 81 80 80 79 78 76 73 70 69 69 69 69 68 68 70 72 73 76 81 82 80 78 77 75 74 72 71 69 67 65 64 64 63 61 60 61 60 59 60 60 59 58 59 59 59 59 58 58 58 58 58 58 58 57 57 57 58 61 63 64 64 63 62 61 60 60 60 61 60 58
70 71 72 73 74 76 79 81 83 84 83 83 83 83 82 83 85 85 83 82 82 82 81 79 77 74 72 70 70 68 67 70 71 70 71 72 78 82 81 79 78 76 75 73 71 69 66 65 65 65 63 62 62 60 58 58 59 59 58 58 58 58 58 58 58 58 58 58 59 59 58 58 57 57 58 61 64 63 62 61 60 59 58 58 59 59 58 57
68 70 71 72 73 74 76 78 80 82 83 83 83 81 80 80 82 84 84 83 83 84 84 82 80 77 75 73 71 68 69 72 70 69 70 70 73 79 81 81 79 77 76 73 71 68 65 65 66 65 64 63 61 58 56 57 58 58 57 57 57 58 58 58 57 58 59 59 60 60 59 58 57 57 58 61 62 61 59 58 57 57 56 56 57 58 57 54
67 68 69 70 71 72 73 76 78 79 80 82 82 81 80 79 80 81 81 81 82 84 85 84 82 80 78 76 73 71 72 71 68 69 70 69 70 74 80 82 81 79 77 74 70 68 67 67 67 65 63 61 59 56 55 57 58 58 56 56 57 58 58 58 58 59 59 59 60 60 58 58 57 56 58 59 59 57 56 56 55 55 54 55 56 56 55 53
65 67 68 68 69 70 71 73 75 77 78 79 79 80 79 78 78 79 79 79 80 82 85 85 84 82 80 78 76 76 75 71 68 69 68 68 69 71 75 80 82 80 78 74 71 70 70 69 67 64 62 60 57 55 56 58 58 56 55 56 57 58 58 59 59 59 58 59 60 59 58 58 57 56 56 56 55 55 54 54 54 53 53 54 55 54 54 52
64 65 66 66 66 67 69 70 73 75 76 77 78 78 78 78 77 77 77 77 78 80 82 83 84 83 81 79 79 80 77 70 68 68 67 68 69 69 71 76 81 82 79 76 74 73 71 69 66 63 61 59 56 55 57 58 57 56 55 55 57 58 58 59 59 59 58 59 59 58 58 57 56 55 54 53 53 53 53 52 52 52 52 52 53 52 51 51
63 64 65 65 64 65 66 67 69 72 74 75 76 77 77 77 77 76 76 76 77 78 80 81 83 83 82 81 83 82 76 71 68 67 67 67 68 68 69 72 78 82 81 79 77 75 71 68 65 63 61 58 57 56 57 59 58 56 55 55 56 57 58 59 59 58 58 58 58 58 57 56 55 54 52 51 52 52 52 52 50 50 50 50 51 51 50 49
63 63 64 64 63 63 64 65 66 68 70 72 73 75 76 76 76 76 76 76 77 78 78 80 81 82 81 83 84 80 76 73 71 71 70 68 67 68 69 70 74 80 83 81 79 76 72 68 64 62 60 59 58 58 59 59 58 56 55 55 56 57 59 59 58 58 58 58 58 57 55 53 52 51 50 50 49 50 52 51 49 49 50 50 50 50 49 48
62 62 63 63 63 63 63 64 64 65 66 67 69 71 72 72 73 74 75 76 77 77 77 78 80 80 80 84 82 77 77 77 77 76 72 69 68 68 69 70 71 76 82 82 80 76 73 68 65 62 60 60 59 59 59 59 58 56 56 57 57 58 58 57 57 58 57 57 56 55 53 51 50 50 49 49 49 49 49 49 49 50 51 51 50 49 47 46
62 62 62 63 64 64 64 64 64 64 64 64 65 66 67 67 67 69 70 72 73 74 75 76 78 78 80 82 79 76 79 81 81 78 72 69 68 68 69 69 70 72 78 81 80 77 73 69 66 63 62 62 60 60 59 58 57 57 57 58 58 57 57 57 57 57 55 54 55 54 52 51 50 50 49 49 49 48 47 48 50 51 52 51 49 48 46 44
61 62 62 62 64 65 65 65 64 65 65 65 65 64 63 63 63 63 63 65 66 68 70 72 74 75 77 78 75 76 81 83 80 76 72 71 68 67 67 68 69 70 73 78 79 77 74 71 68 66 64 63 60 59 58 56 57 58 59 58 57 56 56 56 56 54 51 52 55 55 52 51 51 51 50 50 49 48 47 49 50 50 51 50 49 47 45 43
61 61 61 62 64 65 65 66 66 66 67 67 66 65 64 64 62 61 60 60 60 61 64 67 69 71 74 75 74 77 81 81 78 75 73 70 68 66 66 67 68 68 69 73 77 77 74 72 70 68 65 62 59 58 57 58 60 60 59 57 55 55 55 54 53 51 50 52 55 55 52 52 52 51 49 49 48 47 47 47 49 49 49 50 50 49 46 44
59 60 61 62 64 65 66 67 67 68 69 69 68 67 67 66 64 63 62 60 58 59 61 63 65 67 71 72 73 75 77 76 74 73 72 69 67 66 66 67 66 66 67 70 75 76 74 73 70 67 63 60 59 59 60 62 62 59 57 55 54 54 54 54 52 51 51 52 55 54 52 52 51 50 48 47 46 45 45 46 48 49 50 52 52 51 48 46
58 59 60 62 64 65 67 68 69 70 70 70 70 70 69 67 66 65 63 62 62 63 63 62 63 65 68 68 69 71 73 74 73 72 71 69 68 66 65 65 65 65 65 68 72 74 74 72 68 65 62 61 62 63 64 64 60 56 55 54 53 53 53 53 52 51 51 51 54 55 54 53 50 48 46 45 45 44 44 46 49 51 52 54 54 54 51 47
58 59 61 63 65 66 68 69 70 71 72 72 72 72 71 69 67 66 66 66 67 67 66 66 65 65 66 66 67 69 70 72 72 72 71 69 68 66 64 63 63 63 64 68 71 73 73 70 66 65 64 65 65 65 65 62 58 55 54 54 53 53 54 53 52 51 50 51 53 55 55 54 51 47 44 43 42 41 42 45 50 52 55 55 55 55 52 48
59 61 63 64 66 67 69 70 71 72 73 74 74 73 72 70 69 69 69 70 70 70 70 70 69 68 67 66 67 68 69 70 70 71 70 68 67 65 63 62 62 64 66 68 70 70 69 66 66 67 67 66 65 65 63 60 57 55 54 53 53 54 53 52 51 50 50 51 53 55 56 54 51 48 45 42 41 40 42 44 47 48 51 52 52 52 50 48
58 59 60 61 63 64 66 68 70 71 72 72 72 72 72 72 72 72 73 73 74 73 72 72 72 72 71 69 68 68 69 70 69 70 69 67 67 65 63 62 64 65 66 67 68 67 66 66 70 71 69 66 64 64 62 58 56 53 53 54 54 54 53 52 50 49 50 51 52 53 53 53 50 47 44 43 43 44 44 44 43 45 47 49 50 49 49 48
53 53 53 53 54 55 57 60 62 63 64 65 67 69 70 72 73 75 75 75 75 74 74 75 74 73 73 72 70 71 71 70 69 70 69 67 67 66 64 65 66 66 65 66 67 67 69 72 73 71 67 65 64 64 61 57 55 53 54 54 55 54 52 51 50 49 49 50 51 51 51 51 50 47 44 43 44 46 46 46 46 48 50 51 50 48 48 48
45 44 44 44 44 45 47 50 51 52 53 55 58 61 64 66 69 71 72 73 74 74 75 75 74 73 73 71 71 72 72 70 70 71 71 69 68 67 67 67 67 65 65 66 67 70 73 74 71 67 65 63 63 62 59 56 55 53 54 55 55 54 52 50 49 49 48 49 50 51 50 48 46 46 44 41 41 44 45 47 49 50 50 50 49 48 48 49
38 37 36 36 37 38 40 41 42 43 46 49 51 54 56 59 62 63 65 67 68 70 72 73 73 73 71 70 71 72 71 70 70 71 72 72 71 70 69 68 66 65 66 67 69 72 73 70 67 66 64 63 62 60 58 56 54 53 54 56 55 53 51 50 49 48 48 49 50 49 47 44 42 42 43 40 40 41 42 44 45 47 48 48 48 48 49 48
32 30 30 30 31 32 34 35 37 40 43 45 47 49 51 53 55 55 57 59 60 63 65 67 68 68 69 71 72 71 69 69 67 68 71 72 71 70 69 68 66 66 66 66 69 71 69 68 66 65 63 61 60 58 56 54 52 52 54 55 55 53 51 50 49 47 48 48 47 46 44 42 39 40 42 41 39 39 39 40 41 43 45 46 47 48 48 48
26 25 25 26 27 28 30 33 36 39 41 44 45 47 47 48 49 50 51 53 54 55 57 58 60 62 67 69 70 71 72 72 69 70 72 71 69 69 67 67 66 66 65 66 69 70 68 67 66 63 61 59 58 58 56 54 53 54 56 56 55 53 52 50 48 46 46 46 45 44 43 42 41 40 41 41 39 39 39 39 41 43 45 47 48 49 49 49
22 22 22 23 24 26 30 32 35 38 40 42 43 43 44 45 46 46 48 49 49 50 50 50 53 58 63 64 67 72 74 74 75 75 73 70 67 68 67 67 67 65 65 68 71 70 68 68 66 63 61 60 60 59 57 55 54 55 56 56 54 53 52 49 46 45 45 45 45 44 44 42 41 39 39 39 39 40 40 41 43 45 47 49 50 51 52 53
19 19 20 21 23 27 30 32 35 37 38 38 39 41 42 43 45 46 48 49 49 48 48 48 52 55 57 59 63 68 71 73 75 74 72 70 69 69 67 67 66 65 65 69 69 68 67 67 63 61 60 60 60 59 56 55 55 56 56 55 54 53 50 46 44 44 44 45 46 45 43 41 39 37 36 37 39 40 40 41 44 46 47 48 49 50 51 52
17 18 19 21 24 28 31 33 35 35 35 37 40 42 44 45 47 49 50 51 50 49 49 49 50 51 53 56 59 62 66 69 71 71 70 69 69 68 66 64 63 63 66 67 66 65 65 63 60 59 59 59 58 56 55 54 54 54 54 54 54 51 46 44 44 45 45 46 45 44 42 40 37 34 34 37 39 39 38 38 40 43 43 44 45 46 47 48
16 17 19 22 26 29 31 33 34 35 38 41 44 46 48 49 51 52 52 52 52 52 53 53 52 52 54 57 59 61 63 64 65 66 66 65 64 63 62 61 60 61 63 64 64 64 62 60 59 59 59 58 57 54 53 52 52 52 52 53 51 47 45 45 45 45 45 45 44 44 43 40 35 33 34 37 39 40 39 37 39 41 40 41 42 43 44 45
16 18 21 24 27 30 33 35 36 39 43 46 50 52 53 54 55 54 52 53 52 52 55 55 56 56 55 55 57 59 61 61 61 61 61 61 60 59 59 60 60 60 62 64 63 62 61 60 59 59 58 57 55 54 53 53 53 54 54 53 50 48 47 46 46 46 45 45 46 46 43 38 34 33 36 37 39 41 40 37 39 41 41 41 43 43 44 44
17 20 23 25 28 32 35 38 40 44 48 52 56 57 57 57 57 56 54 54 54 53 55 56 56 56 54 54 55 55 55 57 59 59 59 58 58 58 58 58 59 60 63 65 63 61 60 59 59 59 58 56 55 55 55 56 57 57 56 53 51 49 48 46 46 46 46 46 46 44 41 38 35 35 37 36 37 40 39 37 39 41 41 42 44 45 46 47
18 21 24 27 31 35 39 42 44 48 52 57 60 60 60 60 58 57 56 56 57 57 57 56 55 55 55 54 54 54 54 56 57 57 57 58 58 59 59 58 59 61 63 63 62 61 60 59 59 58 57 56 56 57 58 59 59 57 54 51 49 48 47 46 46 46 47 47 46 43 41 39 37 37 37 36 36 38 40 40 42 43 43 44 45 47 48 48
21 25 28 31 35 39 43 46 48 51 56 60 62 62 62 62 60 59 57 58 60 60 59 58 55 54 53 51 51 53 54 55 56 56 57 58 60 60 60 60 61 62 63 62 61 61 61 60 60 59 57 57 58 60 61 61 59 55 52 51 50 49 49 48 47 47 48 48 45 42 41 40 39 38 37 37 38 39 41 43 44 45 46 46 47 47 47 46
25 29 32 35 38 43 47 50 52 55 59 61 62 62 62 61 61 59 58 59 60 60 58 56 54 52 51 50 51 52 52 52 54 55 56 58 59 59 60 60 61 63 64 63 63 62 61 61 61 59 59 59 60 61 60 58 55 52 52 52 52 50 49 48 47 47 48 46 44 42 41 41 40 39 37 37 39 41 43 45 46 46 47 47 47 46 46 45
28 32 35 39 43 47 50 53 56 58 60 61 61 60 60 58 57 57 57 57 56 55 54 53 51 50 50 50 51 51 51 51 52 53 55 56 57 58 58 59 61 62 64 64 63 62 62 62 60 59 60 61 61 59 57 54 52 51 53 53 51 49 48 47 47 47 47 46 44 43 42 42 41 40 38 38 40 43 45 46 47 48 48 48 47 45 45 45
31 35 38 43 46 49 52 55 57 58 60 60 59 58 57 55 54 54 53 53 52 51 50 50 49 48 48 49 49 49 50 52 53 54 54 55 55 56 56 57 59 61 62 61 60 61 62 61 60 60 61 60 58 56 54 52 51 52 54 53 50 49 48 47 47 47 47 46 45 43 43 42 42 41 40 40 41 44 45 46 48 49 49 49 47 45 44 43
33 37 41 45 48 51 54 56 57 58 59 58 57 57 55 53 53 52 51 49 49 48 47 47 47 46 46 47 48 49 51 52 53 54 54 54 54 55 56 57 58 59 59 59 59 60 60 60 59 60 59 57 55 54 53 53 53 54 54 53 51 50 49 48 48 48 47 46 44 44 43 43 44 43 42 42 43 45 46 47 49 50 50 48 46 44 43 43
36 39 43 47 50 53 55 57 57 58 57 55 56 56 54 53 52 51 49 47 46 46 45 45 45 45 46 47 48 50 51 51 51 50 50 52 53 55 56 57 57 57 57 58 58 57 57 57 57 58 57 56 55 55 54 54 55 55 55 53 52 50 49 48 48 47 47 46 45 44 44 45 46 45 44 44 45 45 46 49 51 50 48 46 44 42 41 41
39 42 46 49 52 54 57 58 58 57 55 53 53 53 53 52 50 49 47 46 45 44 44 45 45 45 46 47 48 49 49 49 48 48 48 49 52 53 55 56 57 57 57 57 57 56 56 56 56 57 57 55 55 55 55 55 54 54 54 53 51 50 48 47 47 48 48 47 46 45 45 46 46 47 46 46 45 46 48 51 51 48 45 44 42 41 41 40
43 46 49 52 54 55 57 57 57 55 54 52 52 51 51 50 48 47 45 45 43 43 43 44 45 46 47 48 48 49 49 49 48 47 47 48 49 52 54 56 56 57 57 57 57 57 57 56 56 57 56 55 55 56 56 55 54 53 53 52 51 50 48 48 49 50 49 48 47 46 46 47 47 47 46 46 47 49 50 50 48 46 44 43 42 41 40 38
46 49 51 53 54 56 57 57 56 55 54 52 50 49 49 48 46 45 44 43 42 41 42 43 45 46 46 47 47 48 49 49 49 49 49 48 49 50 52 54 55 56 56 56 56 57 58 58 58 58 56 54 55 55 55 54 53 53 53 52 52 51 50 50 51 51 49 48 48 47 47 47 46 46 46 47 50 50 49 48 46 45 44 42 42 40 39 38
48 52 54 55 55 56 57 57 56 54 52 51 49 47 46 45 44 43 42 42 42 42 42 43 44 44 44 45 45 46 47 48 49 50 50 51 51 51 51 52 53 54 55 55 56 57 57 58 58 58 56 55 56 56 56 56 55 55 54 54 54 53 53 52 52 51 49 48 48 48 48 47 46 47 48 50 50 49 47 46 44 43 42 41 41 39 38 38
50 53 56 57 56 56 56 55 53 52 50 49 48 46 44 43 42 42 42 42 43 43 43 43 42 42 42 43 44 45 46 47 48 49 50 51 52 53 53 53 54 54 55 56 56 56 57 57 58 58 57 57 57 58 58 58 58 58 57 57 56 55 54 54 52 51 50 49 49 49 48 48 48 49 50 50 48 47 46 44 42 41 41 41 41 38 37 38
51 54 56 57 56 54 52 51 50 49 47 47 47 46 45 44 43 42 42 43 43 43 43 42 40 40 40 41 43 44 45 46 46 47 49 50 52 54 55 55 56 56 57 57 57 57 57 57 58 58 58 58 58 58 58 58 58 58 58 56 55 54 54 53 52 51 51 51 50 49 49 50 50 51 49 47 45 44 43 42 40 40 40 41 40 38 38 38
52 54 56 57 56 54 52 51 51 49 47 47 48 48 48 47 46 44 44 43 43 43 42 41 40 40 41 43 44 44 45 46 47 47 48 50 52 54 55 56 56 57 57 57 58 58 58 58 58 58 58 58 57 58 58 58 57 57 56 55 54 54 53 52 52 51 51 51 50 50 50 50 49 48 46 43 42 42 42 40 39 39 40 40 38 37 38 39
53 54 56 56 56 55 55 54 53 51 49 50 50 49 48 47 45 44 43 43 42 41 41 40 40 41 41 42 43 44 44 45 46 47 48 49 51 53 55 55 56 56 56 57 57 57 58 58 58 59 58 58 58 58 58 58 57 56 56 55 54 54 54 53 52 52 51 51 51 51 49 47 46 45 43 42 42 41 40 39 38 38 39 38 36 36 38 41
53 54 56 56 56 56 56 55 53 51 50 50 49 48 46 44 43 42 42 42 42 41 41 40 41 41 41 41 42 43 44 45 46 47 48 48 49 51 53 55 55 56 56 57 57 57 58 58 58 58 58 59 59 59 59 58 57 56 56 55 55 54 54 53 52 52 52 52 52 50 47 45 45 44 43 42 42 41 39 38 37 37 37 36 35 35 37 40
54 54 55 56 57 57 56 55 53 52 51 49 48 47 45 42 41 41 42 42 42 41 41 40 40 40 41 42 44 45 46 47 48 48 49 50 50 52 53 54 55 55 56 56 57 58 59 59 59 59 59 59 59 59 59 59 58 57 56 55 55 54 54 53 53 53 52 52 51 49 47 45 45 44 43 43 42 41 40 38 36 35 36 35 34 34 36 39
54 53 53 55 56 56 54 53 53 52 50 49 48 48 46 44 43 41 41 41 41 41 42 42 42 42 42 42 44 47 49 51 52 52 52 52 53 54 54 55 56 57 57 56 56 57 58 59 59 59 59 59 59 59 60 59 59 58 57 56 56 56 55 55 55 54 53 52 51 49 47 46 46 45 44 44 43 42 40 38 35 35 35 34 34 35 36 38
Wind_Direction
259 258 257 256 256 255 255 255 255 255 256 256 256 255 253 251 249 247 245 243 242 242 242 242 242 242 243 243 242 242 241 241 242 243 243 243 244 244 245 245 246 246 246 246 246 246 247 247 247 248 249 250 251 252 253 253 254 255 255 256 257 259 260 261 262 263 263 264 265 266 266 267 267 268 268 269 270 271 271 272 272 273 273 273 273 273 274 275
259 258 257 256 255 254 254 254 253 253 253 254 254 254 254 253 252 249 247 245 243 242 241 241 241 241 241 241 241 241 240 240 240 242 242 243 243 244 244 245 245 246 246 247 246 246 247 247 248 248 249 250 251 252 253 253 254 254 255 256 258 259 260 260 261 262 263 264 265 265 266 266 266 266 267 268 269 270 271 272 273 274 274 274 273 273 273 274
259 258 257 255 254 254 253 253 252 252 252 252 252 252 253 253 252 251 250 247 245 243 242 241 240 240 239 239 240 240 240 239 239 240 241 242 243 243 244 244 244 245 246 246 247 247 247 247 247 248 248 249 250 251 252 252 252 253 255 256 258 259 260 261 262 262 263 264 264 265 265 265 265 266 266 268 269 270 271 272 273 274 274 274 274 274 273 273
260 258 257 255 254 253 253 252 252 251 251 251 251 251 251 251 252 251 251 250 248 246 244 242 240 239 239 238 238 238 239 238 238 239 240 240 241 242 242 243 243 244 245 246 246 246 246 246 246 246 247 248 249 250 250 251 251 252 254 256 258 260 261 261 262 262 263 264 264 264 264 265 265 266 267 268 269 270 271 272 273 274 274 274 274 274 274 273
262 259 257 255 254 253 253 252 251 251 250 250 250 250 250 250 250 250 250 250 250 248 246 244 241 239 238 238 237 237 237 237 237 239 238 238 239 241 241 242 242 242 243 244 245 245 245 245 245 245 246 247 247 248 248 249 250 252 255 257 259 259 260 261 261 262 263 263 264 264 265 265 266 267 267 268 269 271 272 273 273 273 274 274 274 274 274 273
264 261 258 256 254 253 252 252 251 251 250 250 249 249 249 249 249 249 249 249 249 249 248 246 243 240 238 238 237 237 236 235 237 238 237 236 237 239 239 240 241 241 242 243 243 244 244 243 244 244 244 245 245 246 247 248 250 252 255 257 257 258 260 261 262 262 263 264 264 265 266 266 267 268 268 269 271 272 272 273 274 274 274 274 273 273 272 272
265 263 260 257 255 253 252 251 251 250 250 250 249 249 248 248 248 247 247 247 248 248 248 247 246 243 240 238 237 236 235 234 235 236 236 235 236 237 238 239 240 240 240 241 241 242 242 242 242 242 243 243 244 245 246 248 251 253 254 255 256 258 259 261 262 263 264 265 265 266 266 268 269 269 270 271 271 272 274 275 275 275 274 273 272 271 270 269
265 263 262 259 256 254 252 251 250 250 249 249 248 248 248 247 247 246 245 245 245 247 247 247 246 245 242 240 238 236 235 234 234 235 235 235 235 236 236 237 238 239 239 239 240 241 241 241 241 241 242 242 242 244 247 249 251 253 253 254 256 258 260 261 263 264 265 266 266 267 268 269 270 272 273 273 273 274 275 276 276 275 273 272 270 269 268 267
265 263 262 261 258 254 252 250 249 249 248 248 248 247 247 246 245 245 245 244 244 244 245 246 246 245 244 242 239 236 236 235 233 233 234 234 234 235 235 235 236 237 238 238 239 239 239 239 239 240 240 241 243 245 247 249 250 251 253 255 257 259 260 262 264 265 266 267 268 269 270 271 273 275 275 275 275 276 276 275 274 273 272 270 268 267 267 265
265 263 262 260 258 255 252 249 248 247 247 247 247 247 246 245 244 244 243 243 242 243 243 244 244 244 243 243 241 239 238 235 232 233 233 233 234 234 234 234 235 235 236 237 237 237 237 237 238 239 240 242 244 245 246 247 249 251 253 256 258 259 261 263 264 265 267 269 270 271 273 275 275 275 276 277 277 277 275 274 273 272 270 268 267 266 265 263
265 263 262 260 258 255 252 249 247 246 246 246 246 246 245 245 243 242 242 242 241 241 242 242 243 243 242 242 242 241 239 234 232 232 232 232 233 233 234 233 234 234 235 235 235 236 236 237 238 239 240 242 243 244 244 246 248 250 253 255 257 259 261 263 264 266 268 270 272 274 276 276 277 277 277 277 276 275 274 273 272 271 269 267 265 264 264 263
265 263 262 260 257 254 252 249 247 246 245 244 244 244 244 244 243 242 241 241 241 240 240 240 241 241 241 241 241 241 239 235 233 232 232 232 232 233 233 233 233 233 233 234 234 235 236 237 238 239 240 241 242 242 243 245 248 250 252 254 257 259 261 263 265 267 270 272 274 276 277 278 278 278 278 277 275 274 273 272 271 270 268 266 264 263 262 262
265 263 261 260 256 253 251 249 247 246 244 244 243 243 243 242 242 241 241 240 240 239 238 238 239 239 239 239 239 239 239 237 234 233 232 232 232 232 232 232 232 232 232 232 233 234 236 237 239 240 240 240 241 241 243 245 247 249 251 253 256 259 261 263 266 269 271 273 276 277 278 279 279 279 279 277 276 274 273 271 270 269 267 266 264 263 262 260
265 262 260 258 255 252 250 249 247 246 244 243 242 242 241 241 240 240 239 239 239 238 237 236 237 238 238 238 238 238 238 238 236 235 233 231 231 231 231 231 231 230 230 231 232 234 235 237 239 239 240 239 239 240 242 244 246 248 250 252 255 258 261 265 267 270 272 275 277 278 279 281 281 281 279 277 276 274 273 272 271 269 267 265 264 264 263 261
264 262 259 257 254 251 249 248 247 245 244 243 242 241 240 240 239 239 238 238 237 236 236 235 236 236 236 237 237 237 237 237 236 235 232 230 230 229 230 230 230 230 229 230 231 232 234 236 237 238 238 238 238 239 241 244 246 248 250 252 255 258 262 266 268 271 274 277 278 278 279 281 281 280 279 276 274 272 272 272 270 268 266 265 264 263 262 262
263 261 258 256 253 251 249 247 246 245 243 242 241 240 239 238 238 237 237 236 236 236 235 235 235 235 235 236 236 235 235 235 235 234 232 230 230 229 229 229 230 230 229 229 230 232 233 235 236 236 236 236 237 239 241 244 247 249 250 252 255 259 263 267 270 273 276 277 277 277 279 280 281 280 277 274 272 271 270 269 267 266 265 265 264 263 261 260
263 261 258 255 252 250 249 247 246 244 243 242 241 240 239 237 236 235 235 235 234 234 234 233 233 233 234 235 234 233 233 233 233 234 232 231 230 229 229 229 229 229 229 228 229 230 232 233 234 234 235 236 237 240 242 245 247 247 248 251 256 260 265 268 272 275 275 275 275 277 279 281 282 280 277 274 272 271 269 267 267 267 267 267 266 264 261 259
264 261 258 255 252 250 249 248 246 245 244 243 242 241 240 238 236 235 234 233 232 232 232 231 231 231 231 232 231 230 231 232 232 233 233 231 230 229 229 228 229 229 228 228 227 229 230 232 233 234 235 237 238 240 241 242 242 244 248 253 258 263 266 269 271 272 272 273 275 278 281 282 283 281 278 275 273 271 269 268 267 268 269 269 268 266 262 260
264 262 259 256 253 251 250 248 247 246 245 245 244 242 241 239 237 235 234 232 231 230 229 228 227 227 228 229 228 229 231 231 232 232 233 232 231 230 229 228 228 228 228 227 227 227 229 231 232 234 236 236 237 237 237 238 240 245 251 256 260 263 266 267 268 269 270 273 276 279 281 282 281 279 275 273 271 268 265 264 264 266 267 268 269 268 265 261
265 262 259 257 254 252 251 249 248 247 246 246 245 244 242 241 239 237 235 233 231 229 228 226 225 225 226 226 226 227 228 229 229 230 232 232 231 230 228 227 227 227 227 226 226 226 227 229 231 232 233 233 233 233 234 238 242 247 252 256 259 262 264 266 267 268 270 273 276 279 280 280 279 275 272 269 267 265 262 261 260 261 262 265 267 270 268 265
266 264 261 258 256 254 252 250 249 248 247 246 245 244 243 242 240 238 236 233 231 229 227 225 223 223 224 223 223 224 226 227 227 227 228 229 230 230 228 227 226 227 226 225 225 225 226 228 229 230 231 231 231 233 236 240 243 247 251 255 258 261 263 264 266 267 269 272 275 279 280 280 277 272 269 266 265 263 261 258 256 257 259 263 266 269 270 268
269 265 262 259 257 255 253 251 249 248 247 246 245 244 243 242 240 238 236 234 232 230 228 226 223 222 221 221 221 222 223 225 225 226 226 227 228 229 228 226 226 226 225 224 223 224 225 227 228 228 229 230 232 235 238 241 244 247 251 254 256 259 261 262 263 265 268 272 275 279 281 281 278 274 272 270 268 263 259 257 256 257 259 262 265 267 269 269
270 267 263 259 256 254 252 250 248 247 246 245 244 244 242 241 239 237 235 234 232 230 229 227 224 222 221 219 219 220 220 221 222 224 224 224 225 226 226 225 224 225 224 223 222 222 222 223 225 226 227 230 232 236 238 240 243 246 249 252 255 257 258 259 261 264 268 273 276 280 282 281 278 276 275 272 269 265 262 261 260 260 261 263 265 266 266 266
271 267 262 258 255 251 249 247 245 244 243 243 242 241 239 238 236 235 234 232 231 230 229 227 225 223 221 219 219 219 219 219 219 221 222 221 222 223 223 223 223 223 222 221 220 219 219 221 223 225 227 230 232 235 238 240 242 245 248 251 253 255 256 257 260 264 269 273 276 279 279 278 278 277 274 270 268 266 265 264 264 263 263 265 266 266 265 265
271 266 261 256 252 248 245 243 241 239 238 236 235 234 233 233 232 231 230 230 229 228 227 226 224 223 222 220 219 220 220 219 218 219 220 218 218 220 220 221 221 220 220 219 217 217 219 222 224 226 228 230 232 235 237 239 241 244 247 250 252 253 253 256 260 265 269 272 275 278 278 277 277 276 273 270 267 264 263 263 264 265 265 266 266 265 264 264
269 264 258 253 248 243 240 237 234 231 229 227 227 226 225 225 225 225 225 225 225 225 224 224 222 221 220 219 218 219 219 219 217 217 219 218 217 218 218 219 218 218 218 217 216 217 220 222 224 225 227 229 232 234 236 238 241 243 246 249 250 250 252 256 261 264 268 272 275 276 275 274 274 273 270 267 263 262 262 263 264 265 266 266 264 263 262 261
268 261 254 248 242 237 233 229 225 222 220 219 218 218 217 217 218 217 217 217 217 218 219 219 218 216 215 214 213 213 212 213 213 214 217 218 217 218 219 218 217 216 215 215 216 218 220 221 223 225 227 229 231 234 235 236 238 241 245 247 247 249 252 256 261 264 268 272 274 273 272 271 268 264 265 266 265 264 262 261 261 262 262 262 261 260 260 259
266 257 249 242 236 230 224 220 217 215 213 212 211 210 210 210 209 208 208 208 207 208 210 211 209 206 208 208 206 205 205 205 206 208 214 216 217 218 218 217 216 215 214 213 215 217 218 220 221 222 225 227 229 232 233 234 236 238 242 244 246 249 253 257 261 264 268 270 271 270 270 268 264 261 263 266 266 265 263 262 261 260 260 260 261 261 261 260
262 253 243 234 227 221 216 213 210 208 208 207 205 203 201 201 199 197 196 195 194 195 197 196 194 195 199 200 199 200 202 203 204 207 212 214 214 216 216 215 214 213 212 212 214 215 216 219 220 222 223 225 227 229 231 233 235 238 241 244 246 249 254 258 261 263 266 268 268 268 267 265 264 264 264 264 263 263 263 263 263 263 263 263 264 264 264 264
258 247 235 225 217 212 208 205 203 203 202 198 195 192 190 189 186 182 182 181 180 182 182 180 181 186 191 192 193 197 200 203 206 208 211 212 212 213 214 214 213 210 210 213 215 216 217 219 220 222 224 225 228 230 232 234 236 238 241 244 247 251 255 258 259 261 264 266 267 267 265 264 264 264 263 262 262 261 260 262 263 264 265 265 266 266 267 267
251 237 225 215 209 205 201 199 197 195 190 185 182 180 177 176 173 170 171 172 172 173 171 173 177 182 187 189 191 195 197 201 205 206 209 211 212 213 212 213 213 211 211 213 214 216 218 220 220 222 224 226 228 231 233 235 237 240 243 246 248 252 255 255 256 260 263 266 266 265 263 263 264 265 263 261 261 261 261 261 262 264 266 268 268 268 268 269
239 226 214 206 201 198 194 191 187 182 177 174 171 168 167 166 164 164 167 169 169 169 169 172 177 182 189 191 190 193 196 199 203 204 207 209 211 212 210 210 210 210 212 214 215 216 217 218 220 221 223 225 227 229 232 234 236 239 242 245 248 250 251 252 256 260 263 264 263 262 262 264 265 264 262 262 263 263 262 262 262 264 267 269 269 269 270 271
227 214 204 199 195 191 186 180 175 172 169 167 164 161 161 160 160 162 167 168 169 171 172 175 181 184 190 193 192 193 196 198 200 202 204 205 206 207 207 207 207 207 211 213 214 215 216 217 219 221 223 225 227 228 230 232 233 236 239 242 246 247 249 252 256 259 261 262 262 262 265 266 265 264 262 263 265 266 265 264 264 265 266 268 270 271 272 272
215 203 195 191 187 182 176 172 169 167 165 163 160 158 159 160 161 164 167 168 171 174 176 180 184 187 189 192 193 194 196 198 200 200 201 202 203 204 204 205 204 206 212 213 212 213 214 216 218 220 221 223 225 226 228 230 232 234 237 241 244 247 250 253 255 258 261 262 263 264 265 265 264 262 263 265 267 271 272 270 268 269 269 270 272 274 274 274
202 190 183 181 178 173 168 166 165 163 163 161 160 159 160 162 164 165 167 170 173 176 179 182 187 189 189 191 192 193 195 197 199 199 199 200 201 202 202 202 203 206 212 214 213 213 214 215 217 219 220 221 223 225 227 229 232 235 238 242 245 248 251 252 254 258 261 262 263 263 264 264 263 262 265 267 269 272 274 274 274 275 276 275 274 275 276 275
188 178 173 173 171 167 164 163 162 162 163 162 162 163 164 164 166 167 170 175 177 178 181 184 188 190 191 191 192 195 196 197 198 198 198 199 200 201 201 201 202 205 210 212 212 212 214 216 217 218 219 221 222 224 226 229 232 235 239 242 244 247 249 251 255 259 262 264 264 264 263 263 263 264 267 269 271 273 275 277 278 279 280 279 277 277 276 276
178 172 168 168 166 164 163 162 161 162 163 164 165 167 167 167 169 171 175 181 182 182 185 187 190 192 191 191 193 195 197 198 199 198 198 199 200 202 202 202 203 206 209 211 211 211 213 215 217 219 220 221 222 225 228 232 235 238 241 243 245 248 250 253 257 260 263 264 263 263 262 263 264 266 269 270 272 275 277 278 280 282 283 282 280 278 277 277
173 168 166 166 165 165 163 162 163 164 165 166 167 168 168 169 171 175 181 185 186 186 187 189 191 192 191 192 193 194 195 197 199 199 199 199 200 202 203 204 205 207 210 212 213 213 214 216 217 218 221 223 224 227 230 233 236 239 242 244 247 248 250 253 257 260 262 262 262 262 263 265 267 269 270 270 271 274 275 278 281 284 285 283 282 280 278 277
170 167 166 167 166 165 163 163 164 166 168 169 168 168 169 170 173 178 184 187 186 186 187 187 189 190 190 191 193 195 196 197 199 199 198 199 201 203 204 206 208 210 212 214 215 216 217 218 218 219 221 223 225 228 231 233 236 238 241 244 246 247 249 253 256 258 259 261 262 264 266 267 268 269 270 270 271 272 274 277 281 283 284 284 284 283 280 278
168 166 166 168 167 165 164 165 167 169 172 172 169 169 171 172 175 180 184 186 185 185 186 187 188 189 189 190 193 195 197 199 200 199 198 198 200 203 205 206 209 211 213 215 216 218 219 219 220 221 222 224 225 228 231 233 235 237 240 243 244 246 249 253 256 259 261 263 264 264 266 267 267 268 269 269 270 271 273 276 279 281 283 284 284 283 280 277
168 167 167 168 167 165 165 167 170 173 174 174 172 171 173 175 179 182 184 185 185 185 185 186 187 189 189 190 193 196 198 200 201 200 199 199 201 203 206 207 209 210 212 215 217 219 221 222 222 223 225 225 227 230 232 233 235 238 240 243 244 247 251 255 258 260 262 262 262 263 264 265 266 268 269 268 268 269 271 275 279 280 282 283 282 281 279 274
168 168 168 168 168 167 167 170 173 175 176 175 175 175 176 179 182 183 185 186 186 185 186 186 187 189 191 192 194 196 198 200 200 200 200 201 203 205 207 208 210 211 212 214 215 217 220 222 224 226 227 228 230 232 234 235 237 239 241 244 246 249 252 254 256 257 259 260 260 261 262 263 265 266 266 266 266 269 273 276 278 280 280 280 280 280 279 271
169 169 169 169 169 169 171 173 175 176 177 177 177 178 179 182 183 184 186 186 186 186 187 187 189 191 192 193 194 196 198 199 200 200 200 202 205 207 209 210 211 212 214 215 216 217 219 221 224 226 228 230 231 233 235 236 238 240 242 244 246 248 250 251 253 254 256 258 259 260 260 261 262 263 263 265 267 271 275 276 278 279 279 279 279 278 275 267
171 171 171 172 172 173 174 176 177 177 178 178 179 181 183 184 184 185 186 186 186 186 188 190 191 192 193 194 196 198 198 198 199 199 200 202 205 209 211 212 212 213 214 216 218 219 220 221 223 225 226 228 231 234 236 237 238 240 241 243 245 247 249 250 251 253 255 257 259 259 259 259 260 262 264 267 271 274 275 276 277 279 280 280 280 276 270 262
173 173 173 174 175 176 177 177 178 178 179 180 182 185 186 187 187 187 187 186 187 188 191 192 192 192 193 195 197 200 201 201 201 201 201 202 203 207 210 213 214 214 215 217 218 220 221 223 225 226 226 227 229 232 234 236 237 237 238 241 243 245 247 249 250 252 254 256 257 258 258 259 260 263 267 270 273 274 275 276 278 279 280 281 281 275 265 258
174 175 175 176 178 179 180 179 178 178 180 182 185 188 189 190 190 189 189 189 189 192 194 194 193 193 194 196 198 200 202 203 204 204 205 205 205 206 208 211 213 214 215 217 218 220 222 224 226 227 227 227 228 230 233 234 236 236 236 238 241 244 247 249 251 253 255 256 257 258 259 261 263 267 269 271 272 273 275 277 278 279 280 282 281 273 261 255
176 177 177 177 179 181 181 180 179 180 183 185 187 190 192 192 193 193 194 193 194 195 197 195 194 194 196 197 199 201 202 203 205 207 208 209 209 209 210 211 212 213 215 216 218 220 222 225 227 228 228 229 230 232 234 235 237 239 240 241 243 246 248 251 253 255 256 257 257 258 260 264 267 269 270 271 272 274 276 277 277 278 281 282 280 270 258 253
177 178 179 179 180 181 182 182 183 184 186 189 191 193 194 195 195 196 198 198 198 199 198 197 195 196 198 199 200 202 204 205 206 208 210 212 213 213 213 214 214 215 216 217 219 220 221 224 227 229 230 230 231 233 235 236 237 240 242 244 245 247 249 251 253 255 256 256 257 259 262 266 267 267 268 270 272 273 276 277 277 278 282 283 278 267 255 252
179 179 181 181 181 182 183 185 187 188 190 193 195 196 197 197 197 199 201 202 203 203 202 201 200 201 201 203 204 204 206 207 208 210 212 214 216 216 216 217 217 218 218 219 221 223 224 225 227 230 231 232 232 233 234 236 237 239 242 244 246 247 249 251 253 254 254 255 258 260 262 263 263 264 267 270 272 273 275 277 277 279 282 281 275 265 255 251
181 181 182 183 184 184 186 187 188 190 193 196 197 199 200 200 201 203 205 207 208 209 208 207 206 205 205 206 208 208 209 210 211 212 214 216 218 219 220 220 220 221 221 221 222 224 226 227 229 231 233 234 234 235 236 237 238 239 242 244 246 248 250 252 253 253 254 256 258 260 261 260 260 263 267 269 270 271 274 277 277 278 281 279 273 265 257 252
184 183 183 184 186 188 188 188 190 192 195 197 200 202 202 203 204 205 207 210 212 214 215 215 214 212 210 209 210 211 212 212 213 214 215 217 219 221 221 221 221 222 223 224 224 225 227 228 229 231 234 235 236 237 238 239 240 241 242 245 247 249 251 252 253 254 255 257 258 260 260 260 261 264 267 268 268 269 273 276 276 277 280 279 273 267 260 254
186 184 184 186 189 190 191 191 192 194 196 198 201 204 205 206 208 209 211 213 214 215 217 219 220 221 219 217 216 215 216 216 215 216 217 218 221 222 222 223 223 223 224 225 225 227 228 229 230 231 233 235 236 238 239 240 241 242 244 246 248 249 251 252 253 254 255 256 257 259 260 261 262 263 265 266 266 268 273 274 273 275 279 280 274 269 264 257
Height
10588 10589 10590 10591 10592 10594 10595 10597 10599 10600 10602 10604 10606 10609 10612 10615 10619 10622 10626 10630 10634 10638 10641 10643 10646 10650 10654 10658 10662 10665 10670 10676 10680 10686 10685 10683 10691 10700 10703 10703 10707 10712 10713 10717 10721 10723 10728 10731 10736 10739 10740 10741 10742 10745 10748 10751 10754 10752 10749 10749 10752 10758 10764 10768 10769 10770 10772 10775 10777 10781 10783 10784 10785 10785 10782 10778 10776 10777 10779 10782 10786 10791 10793 10794 10794 10793 10793 10793
10577 10578 10579 10580 10582 10584 10585 10587 10589 10591 10593 10595 10598 10600 10603 10606 10610 10614 10618 10622 10627 10630 10632 10635 10638 10642 10646 10650 10653 10656 10662 10667 10674 10678 10672 10677 10691 10693 10694 10697 10702 10706 10707 10710 10714 10718 10722 10726 10731 10733 10734 10735 10737 10740 10742 10746 10747 10744 10743 10745 10749 10754 10759 10762 10764 10765 10767 10770 10772 10776 10778 10779 10779 10779 10778 10774 10772 10772 10773 10776 10781 10786 10787 10788 10787 10787 10788 10788
10566 10567 10568 10569 10571 10573 10575 10577 10579 10581 10583 10586 10588 10591 10594 10597 10601 10605 10610 10614 10618 10621 10624 10627 10630 10634 10638 10642 10644 10648 10653 10659 10668 10665 10662 10677 10686 10683 10687 10691 10695 10698 10701 10704 10708 10712 10717 10721 10725 10726 10727 10729 10732 10735 10737 10740 10739 10737 10738 10741 10745 10750 10754 10756 10758 10760 10762 10764 10767 10770 10772 10773 10773 10774 10774 10771 10768 10768 10768 10771 10776 10780 10781 10781 10781 10780 10781 10783
10555 10555 10556 10557 10559 10561 10563 10566 10568 10570 10573 10576 10579 10582 10585 10588 10592 10597 10601 10606 10609 10613 10615 10618 10622 10626 10630 10633 10636 10641 10646 10653 10659 10653 10657 10674 10676 10673 10680 10684 10687 10692 10695 10698 10702 10707 10711 10715 10717 10718 10721 10724 10727 10729 10731 10732 10732 10732 10734 10738 10742 10746 10748 10750 10752 10755 10757 10759 10761 10763 10765 10767 10767 10769 10769 10766 10764 10763 10764 10767 10772 10774 10775 10775 10774 10773 10774 10777
10544 10544 10545 10546 10547 10549 10551 10554 10556 10559 10562 10565 10568 10572 10575 10579 10584 10588 10593 10597 10600 10603 10606 10610 10613 10618 10622 10625 10628 10633 10639 10647 10648 10644 10653 10666 10665 10666 10673 10676 10681 10686 10689 10693 10696 10701 10705 10708 10710 10713 10716 10718 10722 10723 10724 10725 10726 10727 10731 10735 10739 10741 10742 10744 10747 10749 10751 10752 10754 10757 10759 10761 10762 10764 10764 10761 10758 10758 10759 10762 10766 10768 10769 10769 10767 10766 10767 10770
10533 10533 10533 10534 10536 10537 10539 10542 10544 10547 10550 10554 10557 10561 10565 10570 10574 10579 10585 10588 10591 10594 10597 10601 10604 10610 10614 10617 10621 10626 10633 10639 10638 10637 10647 10656 10656 10659 10666 10670 10674 10679 10684 10687 10690 10695 10699 10701 10705 10707 10709 10713 10716 10716 10717 10720 10722 10724 10728 10732 10734 10735 10737 10739 10741 10743 10745 10747 10749 10750 10752 10755 10757 10758 10759 10756 10754 10753 10754 10756 10759 10762 10763 10762 10760 10759 10760 10763
10521 10521 10522 10522 10524 10526 10528 10530 10533 10536 10539 10543 10546 10550 10554 10559 10564 10570 10575 10579 10582 10584 10588 10592 10596 10602 10605 10609 10613 10618 10627 10630 10627 10630 10639 10647 10649 10652 10659 10663 10668 10674 10677 10680 10684 10689 10693 10696 10699 10700 10703 10707 10708 10709 10714 10717 10718 10720 10725 10727 10727 10730 10732 10734 10736 10737 10739 10741 10742 10744 10747 10750 10751 10752 10753 10750 10748 10747 10748 10751 10753 10755 10756 10755 10753 10752 10753 10756
10510 10510 10510 10511 10513 10514 10516 10519 10521 10524 10527 10531 10535 10539 10544 10549 10554 10559 10564 10569 10572 10575 10579 10582 10587 10593 10597 10602 10605 10612 10619 10616 10618 10626 10632 10639 10642 10646 10653 10657 10662 10667 10669 10674 10678 10683 10688 10691 10692 10694 10698 10700 10701 10706 10712 10714 10713 10715 10719 10721 10723 10725 10727 10728 10731 10732 10732 10734 10736 10738 10742 10745 10746 10747 10746 10742 10741 10743 10745 10745 10745 10747 10748 10748 10746 10744 10745 10748
10499 10499 10499 10500 10501 10503 10505 10507 10510 10512 10516 10520 10524 10528 10533 10538 10544 10548 10554 10558 10562 10565 10569 10573 10579 10584 10589 10593 10597 10606 10607 10605 10615 10622 10625 10631 10635 10639 10645 10649 10655 10659 10663 10668 10674 10680 10683 10683 10684 10687 10691 10694 10698 10705 10709 10708 10707 10709 10714 10717 10719 10720 10721 10723 10725 10725 10726 10728 10729 10732 10737 10739 10741 10741 10738 10735 10735 10738 10739 10739 10739 10740 10740 10740 10738 10737 10738 10741
10488 10488 10488 10489 10490 10491 10493 10496 10498 10501 10505 10509 10513 10518 10522 10528 10533 10538 10543 10548 10552 10555 10558 10564 10569 10575 10581 10585 10591 10597 10594 10599 10611 10613 10617 10624 10628 10632 10637 10641 10647 10652 10656 10663 10669 10673 10673 10673 10677 10682 10687 10692 10697 10702 10703 10701 10701 10705 10710 10713 10713 10714 10715 10717 10718 10719 10722 10723 10723 10726 10731 10733 10735 10734 10732 10731 10731 10731 10731 10731 10732 10733 10733 10731 10730 10730 10731 10733
10477 10477 10477 10478 10479 10480 10482 10484 10487 10490 10494 10498 10502 10507 10512 10517 10522 10527 10532 10537 10541 10544 10548 10554 10560 10567 10572 10577 10584 10585 10584 10594 10603 10605 10612 10618 10620 10625 10629 10634 10640 10645 10651 10657 10663 10664 10664 10668 10674 10679 10685 10689 10693 10696 10695 10694 10696 10701 10706 10707 10707 10708 10710 10711 10711 10714 10717 10717 10717 10721 10725 10726 10727 10727 10727 10727 10725 10724 10724 10724 10725 10725 10725 10724 10723 10723 10724 10726
10466 10466 10466 10467 10468 10469 10471 10473 10475 10479 10483 10487 10491 10495 10501 10505 10511 10517 10522 10527 10531 10534 10539 10545 10552 10557 10563 10570 10574 10572 10577 10589 10595 10600 10607 10610 10613 10618 10623 10628 10633 10638 10644 10650 10654 10655 10659 10665 10672 10677 10681 10685 10688 10690 10689 10689 10692 10697 10700 10702 10701 10703 10704 10704 10707 10710 10712 10711 10712 10716 10718 10720 10720 10720 10722 10721 10718 10718 10718 10718 10718 10717 10717 10716 10716 10717 10718 10719
10456 10456 10456 10456 10458 10459 10460 10462 10465 10468 10472 10476 10480 10485 10489 10494 10500 10506 10512 10517 10520 10524 10529 10536 10543 10548 10555 10561 10559 10562 10574 10583 10589 10594 10598 10601 10606 10611 10615 10619 10624 10630 10636 10642 10646 10649 10656 10663 10669 10673 10676 10680 10681 10684 10683 10684 10688 10692 10695 10696 10695 10697 10697 10699 10703 10705 10706 10707 10708 10709 10711 10713 10713 10714 10716 10715 10713 10712 10712 10712 10711 10710 10710 10709 10708 10710 10712 10713
10445 10445 10446 10446 10448 10449 10450 10452 10455 10458 10462 10466 10470 10474 10478 10483 10490 10496 10501 10506 10509 10515 10521 10528 10533 10539 10547 10547 10547 10559 10570 10575 10580 10582 10585 10592 10597 10602 10607 10611 10616 10622 10627 10633 10639 10645 10653 10660 10665 10667 10671 10673 10675 10677 10678 10679 10683 10686 10689 10689 10689 10691 10692 10695 10698 10699 10701 10702 10702 10703 10705 10706 10705 10707 10709 10709 10708 10707 10705 10705 10705 10704 10703 10702 10702 10704 10706 10708
10434 10435 10435 10436 10438 10439 10441 10443 10445 10449 10452 10456 10459 10463 10467 10474 10480 10486 10491 10495 10500 10506 10512 10519 10524 10531 10537 10534 10541 10556 10561 10564 10566 10567 10575 10584 10589 10594 10598 10603 10609 10613 10619 10625 10633 10641 10649 10655 10658 10661 10664 10666 10668 10672 10673 10675 10678 10681 10682 10681 10683 10686 10688 10691 10693 10694 10697 10697 10696 10697 10699 10700 10699 10700 10702 10702 10702 10701 10701 10700 10698 10697 10695 10695 10697 10699 10701 10703
10423 10424 10425 10426 10428 10429 10431 10433 10436 10439 10443 10446 10449 10453 10459 10465 10471 10476 10481 10486 10491 10498 10504 10510 10515 10522 10525 10525 10538 10549 10548 10549 10552 10559 10570 10577 10582 10587 10592 10598 10602 10607 10613 10620 10628 10636 10644 10649 10652 10654 10657 10659 10663 10667 10669 10672 10673 10675 10674 10674 10678 10683 10685 10687 10688 10690 10692 10690 10688 10690 10694 10694 10694 10695 10695 10695 10695 10695 10695 10693 10691 10690 10689 10690 10691 10693 10696 10697
10413 10414 10415 10416 10417 10418 10421 10424 10427 10430 10433 10437 10440 10445 10451 10457 10462 10468 10473 10478 10484 10489 10495 10500 10506 10513 10515 10520 10533 10537 10533 10537 10546 10556 10564 10569 10575 10581 10587 10593 10597 10601 10607 10615 10624 10631 10637 10642 10644 10647 10650 10654 10660 10663 10667 10669 10667 10665 10664 10668 10676 10680 10682 10683 10684 10686 10686 10683 10680 10683 10688 10688 10689 10689 10689 10688 10688 10689 10688 10686 10685 10684 10684 10684 10685 10687 10690 10691
10403 10404 10405 10406 10407 10409 10411 10414 10417 10420 10423 10427 10432 10437 10443 10448 10455 10461 10466 10471 10477 10482 10487 10492 10498 10504 10506 10512 10521 10521 10521 10531 10543 10551 10556 10563 10570 10576 10582 10586 10590 10596 10603 10611 10618 10624 10631 10635 10637 10641 10646 10652 10657 10660 10663 10660 10655 10656 10660 10667 10674 10676 10677 10678 10679 10680 10679 10677 10674 10678 10683 10683 10683 10684 10683 10682 10682 10682 10681 10680 10679 10679 10678 10677 10678 10681 10684 10685
10393 10393 10394 10395 10396 10399 10401 10403 10407 10410 10413 10417 10423 10428 10434 10440 10447 10453 10458 10465 10471 10474 10477 10482 10489 10493 10495 10502 10510 10513 10519 10530 10540 10546 10551 10558 10565 10570 10575 10580 10586 10593 10599 10606 10612 10619 10624 10627 10632 10639 10644 10649 10651 10653 10652 10647 10648 10655 10661 10665 10669 10671 10671 10671 10672 10673 10674 10673 10670 10672 10676 10677 10677 10678 10678 10677 10676 10677 10677 10676 10675 10674 10673 10671 10672 10674 10677 10679
10382 10383 10384 10384 10385 10388 10390 10393 10396 10399 10403 10408 10413 10418 10424 10431 10439 10445 10451 10458 10461 10463 10469 10475 10481 10485 10489 10498 10505 10509 10515 10523 10533 10539 10545 10552 10558 10563 10569 10575 10582 10588 10595 10600 10605 10612 10617 10623 10630 10636 10639 10640 10641 10642 10641 10642 10649 10657 10659 10661 10664 10665 10664 10664 10666 10668 10669 10669 10666 10666 10669 10671 10671 10672 10673 10673 10672 10673 10673 10672 10671 10670 10668 10667 10667 10668 10671 10673
10372 10372 10372 10372 10373 10376 10378 10381 10385 10388 10392 10397 10402 10407 10414 10422 10430 10437 10443 10447 10450 10455 10461 10466 10473 10478 10484 10492 10498 10503 10509 10516 10525 10531 10537 10545 10551 10558 10565 10572 10578 10584 10589 10593 10599 10606 10612 10620 10627 10628 10629 10630 10632 10633 10636 10643 10650 10654 10656 10657 10659 10658 10658 10659 10661 10663 10664 10664 10662 10660 10660 10663 10665 10665 10667 10668 10669 10670 10670 10668 10666 10665 10664 10663 10663 10664 10666 10669
10360 10359 10359 10360 10361 10363 10366 10369 10372 10376 10381 10385 10391 10397 10405 10414 10422 10427 10432 10436 10440 10446 10451 10458 10466 10471 10477 10485 10491 10498 10504 10510 10518 10524 10531 10540 10546 10553 10560 10566 10573 10577 10580 10586 10593 10601 10611 10618 10619 10617 10618 10622 10627 10630 10635 10642 10647 10651 10652 10652 10652 10652 10653 10654 10656 10658 10658 10658 10657 10654 10653 10654 10656 10659 10661 10664 10665 10665 10664 10662 10662 10661 10660 10660 10661 10662 10662 10664
10347 10346 10346 10347 10348 10350 10353 10356 10360 10364 10368 10374 10381 10389 10396 10404 10410 10414 10420 10424 10430 10436 10444 10450 10456 10462 10471 10478 10485 10491 10496 10502 10511 10517 10526 10535 10541 10546 10553 10560 10565 10568 10574 10582 10590 10599 10607 10607 10603 10605 10612 10620 10624 10626 10632 10639 10643 10647 10647 10646 10646 10647 10648 10649 10651 10653 10653 10653 10652 10650 10648 10646 10649 10653 10658 10659 10659 10658 10657 10657 10658 10658 10656 10656 10658 10658 10658 10658
10334 10333 10334 10335 10336 10339 10342 10345 10348 10353 10359 10366 10372 10378 10384 10390 10395 10400 10406 10413 10420 10427 10433 10439 10448 10457 10465 10473 10479 10484 10488 10497 10506 10511 10519 10527 10533 10540 10546 10551 10556 10562 10570 10577 10585 10593 10593 10589 10592 10602 10611 10617 10619 10621 10629 10636 10639 10641 10640 10640 10641 10641 10643 10644 10646 10649 10649 10649 10647 10646 10644 10642 10644 10648 10653 10655 10653 10653 10652 10653 10653 10652 10652 10652 10653 10654 10653 10653
10324 10323 10324 10325 10327 10330 10332 10335 10339 10345 10351 10356 10360 10365 10371 10377 10382 10387 10395 10402 10409 10417 10423 10432 10443 10451 10459 10470 10476 10478 10484 10494 10502 10506 10512 10519 10526 10532 10538 10543 10549 10558 10565 10572 10579 10582 10579 10583 10594 10603 10608 10613 10615 10618 10626 10631 10634 10635 10634 10634 10635 10635 10637 10640 10643 10645 10645 10644 10643 10642 10641 10640 10642 10643 10645 10649 10649 10648 10648 10648 10648 10647 10646 10648 10648 10649 10648 10648
10316 10316 10317 10318 10320 10322 10325 10328 10333 10338 10342 10345 10350 10355 10360 10365 10370 10377 10385 10392 10400 10407 10414 10423 10433 10443 10454 10464 10467 10473 10481 10488 10495 10501 10505 10512 10518 10523 10530 10537 10545 10553 10558 10565 10571 10572 10576 10585 10593 10598 10602 10607 10610 10614 10621 10626 10629 10630 10628 10627 10628 10630 10633 10636 10638 10640 10640 10639 10638 10638 10637 10639 10641 10638 10637 10641 10643 10643 10644 10644 10643 10642 10641 10642 10642 10642 10643 10644
10309 10310 10311 10312 10314 10316 10320 10323 10326 10330 10333 10337 10342 10347 10352 10357 10364 10371 10378 10385 10392 10399 10407 10415 10426 10437 10444 10449 10456 10467 10476 10481 10489 10495 10500 10507 10514 10520 10527 10533 10540 10546 10553 10561 10565 10568 10575 10583 10588 10593 10598 10603 10607 10611 10616 10621 10624 10624 10620 10619 10622 10624 10628 10632 10634 10636 10636 10635 10634 10633 10634 10636 10638 10636 10632 10635 10638 10639 10640 10640 10639 10638 10636 10636 10636 10636 10637 10639
10305 10305 10306 10308 10309 10312 10315 10317 10320 10323 10327 10331 10336 10341 10347 10353 10360 10367 10373 10379 10386 10393 10401 10410 10421 10428 10431 10440 10451 10459 10465 10473 10482 10488 10493 10501 10510 10517 10524 10529 10535 10541 10549 10556 10558 10563 10571 10576 10581 10588 10593 10599 10602 10605 10609 10614 10617 10616 10612 10613 10616 10620 10624 10628 10631 10631 10630 10630 10629 10629 10631 10632 10633 10633 10631 10632 10633 10634 10635 10635 10634 10633 10632 10631 10631 10631 10632 10633
10301 10302 10303 10304 10306 10309 10311 10313 10316 10319 10323 10328 10334 10340 10345 10351 10357 10364 10370 10377 10384 10391 10399 10408 10418 10423 10428 10439 10447 10451 10459 10468 10474 10479 10487 10497 10505 10512 10518 10522 10528 10537 10545 10548 10549 10557 10565 10569 10575 10583 10588 10592 10594 10597 10603 10608 10610 10608 10607 10608 10612 10615 10620 10625 10626 10626 10626 10624 10625 10626 10626 10626 10628 10630 10631 10630 10630 10630 10630 10630 10629 10628 10627 10626 10626 10626 10626 10627
10298 10299 10300 10302 10304 10306 10308 10311 10313 10317 10322 10328 10334 10339 10345 10350 10357 10363 10370 10377 10383 10390 10398 10407 10414 10421 10429 10438 10444 10450 10458 10464 10470 10478 10486 10492 10499 10505 10511 10516 10524 10533 10539 10541 10546 10555 10561 10565 10574 10581 10584 10586 10588 10594 10599 10602 10603 10603 10604 10604 10607 10611 10617 10620 10621 10621 10621 10619 10620 10621 10621 10622 10625 10627 10628 10627 10626 10626 10627 10627 10625 10623 10622 10622 10622 10621 10621 10621
10296 10297 10299 10301 10302 10304 10306 10309 10312 10317 10323 10328 10334 10339 10345 10350 10357 10364 10371 10378 10385 10392 10400 10408 10415 10422 10429 10435 10441 10449 10456 10461 10469 10478 10484 10490 10495 10502 10509 10516 10524 10531 10535 10538 10546 10553 10558 10565 10573 10576 10578 10581 10585 10591 10595 10597 10599 10600 10600 10600 10603 10608 10612 10614 10615 10615 10615 10615 10615 10616 10616 10619 10622 10624 10624 10622 10621 10621 10623 10623 10621 10619 10619 10618 10617 10617 10616 10616
10295 10296 10298 10299 10301 10303 10305 10309 10313 10319 10323 10328 10334 10340 10345 10352 10358 10365 10372 10379 10385 10391 10399 10406 10414 10421 10425 10430 10437 10445 10452 10460 10468 10475 10481 10488 10494 10501 10508 10515 10523 10530 10533 10537 10543 10549 10556 10562 10566 10568 10571 10575 10581 10586 10590 10592 10595 10596 10596 10596 10599 10604 10607 10609 10610 10610 10610 10610 10610 10610 10612 10616 10620 10621 10619 10617 10616 10616 10617 10619 10617 10615 10615 10614 10613 10613 10612 10611
10294 10295 10297 10299 10300 10303 10305 10309 10314 10319 10324 10329 10335 10341 10347 10353 10359 10365 10372 10379 10385 10391 10397 10403 10409 10415 10422 10430 10437 10443 10450 10457 10464 10471 10477 10484 10490 10496 10503 10510 10518 10525 10527 10529 10537 10545 10551 10556 10559 10563 10567 10572 10577 10581 10584 10587 10588 10589 10589 10591 10595 10599 10602 10604 10605 10605 10605 10605 10605 10606 10610 10613 10616 10616 10614 10613 10612 10610 10612 10614 10612 10611 10611 10610 10609 10608 10607 10607
10293 10295 10297 10299 10301 10304 10307 10310 10315 10320 10325 10331 10336 10342 10348 10353 10359 10365 10373 10380 10386 10392 10399 10404 10409 10415 10421 10428 10435 10443 10450 10456 10461 10466 10473 10480 10486 10492 10499 10507 10515 10519 10519 10523 10532 10541 10545 10550 10554 10557 10562 10567 10572 10575 10577 10578 10579 10580 10584 10588 10591 10594 10597 10599 10599 10600 10600 10600 10601 10604 10606 10609 10611 10610 10608 10608 10607 10604 10605 10606 10606 10605 10605 10605 10604 10603 10602 10601
10293 10295 10298 10300 10302 10305 10308 10312 10317 10322 10328 10333 10338 10344 10348 10354 10360 10367 10374 10381 10386 10392 10399 10405 10411 10416 10421 10427 10434 10440 10445 10451 10457 10464 10471 10477 10482 10488 10495 10503 10510 10514 10515 10521 10531 10537 10540 10545 10548 10552 10557 10562 10565 10567 10568 10569 10572 10576 10582 10586 10588 10590 10592 10593 10594 10595 10595 10595 10597 10601 10602 10604 10605 10604 10604 10604 10602 10599 10599 10598 10598 10598 10598 10598 10598 10597 10596 10595
10293 10295 10298 10301 10303 10306 10309 10313 10319 10324 10329 10334 10338 10343 10348 10355 10362 10370 10375 10379 10384 10391 10398 10404 10410 10416 10422 10428 10434 10438 10442 10448 10455 10461 10468 10473 10477 10483 10490 10497 10504 10508 10510 10517 10526 10531 10535 10539 10542 10547 10552 10555 10557 10558 10560 10563 10568 10574 10579 10582 10583 10585 10586 10587 10589 10590 10590 10591 10594 10597 10598 10598 10599 10599 10600 10599 10597 10594 10593 10592 10592 10591 10591 10591 10591 10590 10589 10588
10294 10296 10299 10302 10305 10308 10311 10315 10320 10325 10330 10334 10337 10342 10348 10356 10363 10370 10374 10377 10382 10389 10396 10402 10409 10415 10422 10427 10432 10437 10443 10449 10454 10460 10465 10470 10476 10482 10488 10495 10500 10504 10507 10512 10518 10524 10529 10533 10537 10543 10546 10547 10549 10552 10556 10561 10567 10572 10574 10575 10578 10580 10582 10583 10585 10585 10585 10586 10589 10591 10592 10593 10594 10595 10596 10595 10592 10590 10587 10586 10586 10585 10584 10584 10584 10584 10583 10581
10294 10297 10300 10303 10306 10309 10313 10317 10322 10326 10330 10333 10337 10343 10350 10356 10364 10370 10373 10376 10383 10389 10395 10401 10408 10414 10420 10425 10431 10436 10442 10448 10453 10459 10465 10470 10476 10481 10487 10494 10498 10501 10504 10508 10515 10521 10524 10527 10533 10538 10539 10541 10544 10549 10555 10560 10565 10568 10567 10569 10574 10576 10578 10579 10579 10580 10580 10581 10584 10586 10587 10588 10589 10590 10591 10591 10589 10586 10583 10581 10580 10579 10578 10578 10578 10578 10577 10575
10295 10298 10301 10304 10307 10311 10315 10319 10324 10329 10331 10335 10340 10346 10352 10357 10363 10368 10372 10377 10383 10390 10396 10401 10407 10414 10420 10426 10431 10437 10441 10445 10449 10455 10462 10469 10475 10481 10486 10491 10496 10499 10503 10508 10514 10518 10520 10524 10529 10531 10533 10537 10542 10548 10553 10557 10561 10562 10562 10566 10569 10570 10572 10573 10574 10575 10575 10576 10579 10581 10582 10583 10583 10584 10585 10585 10584 10582 10579 10577 10575 10574 10573 10572 10572 10572 10571 10570
10296 10299 10303 10306 10309 10312 10317 10322 10327 10330 10333 10337 10342 10347 10352 10358 10362 10367 10372 10378 10384 10391 10397 10402 10408 10414 10420 10425 10431 10435 10439 10442 10447 10453 10460 10467 10473 10478 10483 10487 10492 10496 10502 10507 10511 10514 10517 10521 10525 10527 10530 10535 10540 10545 10549 10552 10555 10556 10557 10560 10563 10564 10566 10567 10568 10570 10570 10572 10575 10576 10577 10577 10577 10577 10579 10580 10579 10577 10575 10572 10570 10569 10568 10567 10567 10567 10567 10565
10297 10300 10304 10308 10311 10314 10319 10324 10328 10331 10335 10340 10344 10348 10353 10358 10363 10368 10373 10379 10386 10392 10397 10403 10408 10413 10419 10424 10428 10432 10437 10442 10448 10455 10462 10467 10471 10475 10479 10484 10488 10493 10498 10502 10507 10511 10515 10518 10522 10524 10527 10533 10537 10540 10543 10546 10549 10551 10552 10555 10558 10559 10561 10562 10564 10565 10565 10567 10569 10570 10571 10571 10571 10572 10573 10573 10573 10572 10570 10568 10566 10565 10565 10564 10563 10563 10562 10560
10297 10301 10305 10309 10312 10316 10320 10324 10328 10333 10338 10342 10346 10350 10355 10359 10364 10370 10375 10380 10386 10391 10397 10402 10407 10413 10418 10422 10427 10431 10436 10442 10448 10455 10461 10465 10469 10472 10476 10481 10485 10489 10493 10497 10503 10507 10510 10514 10517 10519 10524 10530 10534 10535 10538 10541 10544 10547 10548 10551 10554 10555 10557 10558 10558 10558 10559 10561 10563 10565 10565 10566 10566 10566 10566 10567 10567 10566 10565 10563 10561 10562 10561 10561 10560 10558 10557 10555
10297 10301 10305 10309 10313 10317 10321 10325 10330 10335 10340 10344 10348 10352 10356 10360 10365 10370 10375 10381 10386 10391 10397 10402 10406 10411 10416 10421 10425 10430 10435 10440 10446 10452 10457 10462 10466 10470 10473 10477 10481 10486 10490 10494 10498 10501 10504 10508 10511 10514 10520 10526 10529 10530 10533 10537 10541 10543 10544 10546 10548 10549 10551 10552 10551 10552 10553 10555 10557 10558 10559 10559 10560 10559 10560 10560 10560 10560 10559 10557 10557 10557 10557 10556 10555 10554 10552 10550
10296 10301 10306 10311 10314 10318 10322 10326 10331 10336 10340 10345 10350 10353 10357 10361 10366 10371 10376 10381 10386 10391 10396 10400 10404 10409 10415 10420 10425 10429 10433 10438 10443 10448 10453 10457 10462 10465 10469 10473 10478 10482 10487 10490 10494 10496 10499 10503 10505 10508 10516 10522 10524 10526 10529 10533 10536 10538 10540 10541 10541 10542 10544 10545 10545 10546 10548 10549 10550 10551 10552 10553 10554 10554 10554 10554 10553 10553 10553 10552 10552 10552 10551 10551 10550 10549 10547 10546
10295 10300 10304 10310 10315 10318 10322 10326 10331 10337 10342 10347 10351 10355 10358 10363 10367 10371 10376 10381 10386 10389 10393 10397 10403 10409 10414 10419 10424 10428 10433 10437 10441 10445 10448 10452 10456 10460 10464 10469 10473 10478 10482 10485 10488 10491 10494 10498 10500 10505 10511 10516 10518 10520 10522 10525 10528 10531 10533 10533 10534 10535 10536 10538 10539 10540 10542 10544 10544 10545 10546 10548 10548 10548 10548 10547 10547 10547 10547 10547 10547 10546 10546 10545 10545 10544 10543 10543
10295 10300 10304 10309 10314 10319 10323 10328 10334 10339 10343 10348 10352 10356 10360 10364 10368 10372 10376 10380 10384 10387 10391 10396 10402 10407 10413 10417 10422 10426 10431 10435 10439 10442 10445 10448 10451 10454 10458 10462 10466 10471 10476 10479 10482 10486 10489 10492 10495 10499 10505 10509 10511 10513 10515 10517 10520 10522 10525 10527 10528 10529 10530 10532 10533 10535 10537 10538 10539 10540 10541 10542 10542 10542 10542 10542 10542 10542 10542 10542 10542 10541 10540 10540 10539 10539 10538 10539
10295 10300 10305 10309 10315 10320 10326 10332 10336 10340 10344 10348 10351 10355 10359 10363 10368 10372 10375 10379 10382 10386 10390 10395 10401 10406 10411 10415 10419 10423 10427 10432 10435 10439 10442 10445 10447 10450 10453 10456 10460 10465 10469 10473 10476 10480 10484 10486 10489 10493 10498 10502 10505 10507 10509 10512 10514 10516 10519 10522 10524 10525 10526 10528 10529 10531 10532 10533 10535 10536 10536 10536 10536 10536 10537 10537 10537 10537 10537 10537 10537 10537 10535 10534 10534 10533 10534 10535
10294 10300 10305 10310 10315 10321 10327 10332 10336 10339 10343 10346 10349 10352 10356 10360 10365 10369 10373 10377 10380 10384 10389 10395 10400 10404 10408 10411 10416 10420 10424 10428 10432 10435 10438 10441 10443 10446 10450 10453 10457 10461 10465 10468 10472 10475 10478 10480 10483 10487 10491 10495 10499 10502 10504 10507 10509 10511 10513 10516 10518 10520 10521 10523 10524 10526 10527 10528 10530 10531 10532 10532 10531 10531 10532 10533 10533 10533 10532 10533 10533 10532 10530 10529 10528 10528 10529 10530
10294 10300 10305 10310 10315 10321 10326 10330 10334 10338 10342 10344 10347 10351 10355 10360 10365 10369 10372 10376 10379 10383 10388 10393 10398 10402 10406 10410 10414 10418 10422 10425 10429 10432 10435 10437 10440 10443 10446 10450 10453 10457 10461 10465 10469 10471 10474 10476 10479 10481 10485 10489 10492 10495 10498 10500 10503 10506 10507 10508 10511 10513 10515 10517 10519 10520 10522 10523 10524 10526 10527 10527 10527 10527 10527 10528 10528 10528 10528 10528 10528 10527 10526 10524 10523 10523 10524 10526
10294 10299 10304 10310 10315 10319 10323 10328 10333 10338 10341 10344 10348 10352 10356 10361 10365 10369 10372 10375 10379 10382 10387 10391 10395 10400 10404 10408 10412 10415 10419 10422 10425 10428 10431 10434 10436 10439 10442 10446 10450 10454 10457 10461 10465 10467 10470 10473 10475 10478 10480 10483 10486 10489 10492 10494 10497 10500 10501 10503 10505 10507 10509 10512 10513 10514 10516 10518 10518 10520 10522 10522 10522 10522 10522 10523 10523 10523 10523 10523 10523 10522 10521 10519 10518 10518 10520 10522
10293 10298 10304 10310 10314 10318 10322 10328 10332 10337 10340 10344 10348 10352 10356 10361 10364 10368 10371 10374 10378 10382 10386 10390 10393 10397 10401 10405 10408 10411 10414 10416 10419 10422 10425 10428 10430 10433 10437 10441 10446 10450 10453 10457 10461 10463 10465 10468 10471 10473 10475 10477 10480 10483 10485 10488 10491 10494 10496 10498 10500 10501 10503 10505 10507 10508 10510 10511 10512 10514 10516 10516 10517 10517 10517 10517 10518 10519 10519 10518 10518 10518 10516 10515 10514 10514 10516 10518
10293 10299 10304 10309 10313 10317 10323 10328 10332 10336 10340 10344 10348 10352 10356 10360 10363 10367 10370 10373 10377 10381 10384 10387 10390 10393 10397 10401 10404 10406 10408 10411 10414 10417 10420 10423 10426 10429 10433 10437 10440 10444 10447 10452 10455 10458 10460 10463 10466 10468 10470 10472 10474 10476 10478 10482 10485 10488 10491 10493 10494 10495 10497 10498 10500 10502 10504 10505 10506 10509 10510 10511 10511 10512 10512 10512 10513 10514 10514 10513 10514 10514 10512 10511 10511 10511 10512 10513